{"data":{"norad_id":69315,"intl_designator":"2026-119V","name":"STARLINK-37627","alt_names":[],"object_type":"PAYLOAD","status":"ACTIVE","operator":null,"country":"US","launch_date":"2026-05-30","launch_site_code":"AFWTR","launch_vehicle":null,"mission":null,"orbit_class":"UNKNOWN","rcs_meters":null,"size_class":null,"mass_kg":null,"dimensions":null,"purposes":["comms"],"wikipedia_slug":null,"has_3d_model":false,"image_url":null,"decayed_at":null,"tle_current":{"epoch":"2026-09-20T00:31:49.846080Z","epoch_age_seconds":70391,"freshness":"FRESH","line1":"1 69315U 26119V   26263.02210470  .00011299  00000+0  35160-3 0  9997","line2":"2 69315  97.2835 287.8202 0001485  96.0310 264.1102 15.33461510 18594","mean_motion":15.3346151,"eccentricity":0.0001485,"inclination_deg":97.2835,"raan_deg":287.8202,"arg_perigee_deg":96.031,"mean_anomaly_deg":264.1102,"bstar":0.0003516,"rev_number":1859,"period_min":93.9051936165,"perigee_km":464.4777735633,"apogee_km":466.51033198597,"semimajor_km":6843.6310527746,"source":"CELESTRAK","updated_at":"2026-09-20T09:00:44.157764Z"}}}